Regional Weather Roundup
Issued by NWS

Home | Current Version | Previous Version | Text Only | Print | Product List | Glossary Off
Versions: 1 2 3 4 5 6 7 8 9 10 11 12 13 14 15 16 17 18 19 20 21 22 23 24 25 26 27 28 29 30 31 32 33 34 35 36 37 38 39 40 41 42 43 44 45 46 47 48 49 50

000
ASUS43 KDTX 170210
RWRMI
MICHIGAN HOURLY REGIONAL WEATHER ROUNDUP
NATIONAL WEATHER SERVICE DETROIT/PONTIAC MI
900 PM EST MON JAN 16 2017

NOTE: "FAIR" INDICATES FEW OR NO CLOUDS BELOW 12,000 FEET WITH NO
SIGNIFICANT WEATHER AND/OR OBSTRUCTION TO VISIBILITY.

MIZ047>049-052>055-059>063-066>070-074>076-081>083-170300-
SOUTHEAST LOWER MICHIGAN

CITY           SKY/WX    TMP DP  RH WIND       PRES   REMARKS
ADRIAN         CLOUDY    32  32 100 SE6       30.16S FOG     WCI  26
ALMA           MIX PCPN  32  31  96 CALM      30.16S
ANN ARBOR      MIX PCPN  32  32 100 NE7       30.16F FOG     WCI  26
BAD AXE        MIX PCPN  31  28  87 CALM      30.20S
CARO           LGT SNOW  32  30  92 SE3       30.17F
DETROIT        LGT RAIN  33  31  92 NE9       30.18F FOG     WCI  25
FLINT          MIX PCPN  32  30  92 SE7       30.16F FOG     WCI  26
GROSSE ILE     MIX PCPN  32  31  96 E8        30.17F WCI  25
HILLSDALE      MIX PCPN  32  32 100 SE8       30.11R VSB 1/2 WCI  25
HOWELL         MIX PCPN  32  29  90 E8        30.15S WCI  25

CITY           SKY/WX    TMP DP  RH WIND       PRES   REMARKS
JACKSON        MIX PCPN  32  30  92 E12       30.11F FOG     WCI  23
LAMBERTVILLE   FOG       34  32  92 E3        30.15F VSB 1
LANSING        LGT RAIN  32  29  88 E8        30.14F FOG     WCI  25
LAPEER         MIX PCPN  32  30  93 SE3       30.18F
MASON          LGT RAIN  32  31  96 SE7       30.13F WCI  26
MONROE         CLOUDY    33  32  96 E6        30.16F FOG     WCI  27
MT. CLEMENS    LGT RAIN  32  32  99 E7        30.19F WCI  26
PONTIAC        FRZ RAIN  31  28  89 E10       30.15F FOG     WCI  22
PORT HOPE        N/A     32  26  78 CALM      30.20S
PORT HURON     MIX PCPN  32  30  93 E5        30.21F WCI  27
TRI CITIES     FRZ RAIN  32  31  96 SE7       30.17F FOG     WCI  26
MIDLAND        MIX PCPN  32  30  91 CALM      30.17S
TROY           LGT RAIN  32  30  93 SE3       30.22S
SAGINAW HB     MIX PCPN  32  30  93 SE3       30.17F
$$
MIZ043>046-050>051-056>058-064>065-071>073-077>080-170300-
SOUTHWEST LOWER MICHIGAN

CITY           SKY/WX    TMP DP  RH WIND       PRES   REMARKS
BATTLE CREEK   LGT RAIN  34  33  96 SE7       30.10F FOG     WCI  28
BENTON HARBOR  CLOUDY    37  35  92 E10       30.03F FOG     WCI  30
BIG RAPIDS     LGT SNOW  32  31  94 E7        30.11F WCI  26
COLDWATER      MIX PCPN  34  34 100 E9        30.08F WCI  27
FREMONT        MIX PCPN  33  33 100 E8        30.08F WCI  26
HOLLAND        LGT RAIN  34  32  92 E8        30.07F WCI  27
GRAND RAPIDS   LGT RAIN  33  31  92 E13       30.08F FOG     WCI  24
IONIA          MIX PCPN  32  31  98 E12       30.11F WCI  23
KALAMAZOO      LGT RAIN  35  32  88 E7        30.06F FOG     WCI  29
LUDINGTON      MIX PCPN  32  32 100 E7        30.08F WCI  26
MARSHALL       DRIZZLE   33  33  98 SE7       30.10S WCI  27
MOUNT PLEASANT MIX PCPN  32  30  93 E3        30.15F
MUSKEGON       LGT RAIN  34  33  96 SE10      30.08F FOG     WCI  26
SOUTH HAVEN    LGT RAIN  36  36  99 SE10      30.04F WCI  28
$$
MIZ016>042-170300-
NORTHERN LOWER MICHIGAN

CITY           SKY/WX    TMP DP  RH WIND       PRES   REMARKS
ALPENA         PTCLDY    23  18  81 CALM      30.17F
BEAVER ISLAND  CLOUDY    27  25  93 CALM      30.14F
BELLAIRE       CLOUDY    25  23  94 CALM      30.15F
CADILLAC       MIX PCPN  30  27  86 E7        30.10F WCI  24
CHARLEVOIX     PTCLDY    31  26  82 E5        30.17F WCI  26
FRANKFORT      LGT RAIN  34  31  88 CALM      30.11F
GAYLORD        MOCLDY    31  20  63 SE3       30.13F
GRAYLING       CLOUDY    27  23  86 CALM      30.14F
HARBOR SPRINGS CLOUDY    27  24  89 E3        30.15F
HOUGHTON LAKE  MIX PCPN  31  20  63 SE6       30.14F WCI  25
MANISTEE       MIX PCPN  32  30  92 E8        30.10F WCI  25
OSCODA         CLOUDY    31  23  71 SW3       30.19S
PELLSTON       PTCLDY    24  20  84 CALM      30.15F
ROGERS CITY    PTCLDY    25  21  83 CALM      30.17F
TRAVERSE CITY  CLOUDY    35  23  61 CALM      30.11F
$$
MIZ007>008-015-170300-
EASTERN UPPER MICHIGAN

CITY           SKY/WX    TMP DP  RH WIND       PRES   REMARKS
KINROSS        CLOUDY    24  22  91 E3        30.16S
MACKINAC ISLAN PTCLDY    29  23  78 S3        30.15F
NEWBERRY       CLOUDY    19  18  97 CALM      30.12F
S. S. MARIE    CLOUDY    25  20  81 E3        30.14F
$$
MIZ004>006-011>014-085-170300-
CENTRAL UPPER MICHIGAN

CITY           SKY/WX    TMP DP  RH WIND       PRES   REMARKS
MANISTIQUE     CLOUDY    24  22  92 CALM      30.12F
ESCANABA       PTCLDY    22  20  92 CALM      30.12F FOG
SAWYER-GWINN   CLEAR     23  19  86 CALM      30.09F
$$
MIZ001>003-009>011-084-170300-
WESTERN UPPER MICHIGAN

CITY           SKY/WX    TMP DP  RH WIND       PRES   REMARKS
IRON MOUNTAIN  CLOUDY    24  17  74 CALM      30.07F
HOUGHTON       CLOUDY    30  24  78 E5        30.06F WCI  25
COPPER HARBOR    N/A     26  24  92 W3        30.10F
IRONWOOD       CLOUDY    28  22  78 CALM      30.05F
$$

ABBREVIATIONS USED IN REMARKS
   TC - TEMPERATURE IN CELSIUS
  WCI - WIND CHILL INDEX
   HX - HEAT INDEX
  VSB - VISIBILITY





USA.gov is the U.S. government's official web portal to all federal, state and local government web resources and services.